Flag for U.S.A. Weather past 2 weeks in Cincinnati, Ohio, U.S.A.

Now
30 °F

Overcast.


Feels Like: 23 °F
Forecast: 28 / 39 °F
Wind: 7 mph from Northeast

Location: Cincinnati Municipal Airport Lunken Field

Current Time: Dec 29, 2014 at 4:35:41 AM

Latest Report: Dec 29, 2014 at 3:53 AM


Visibility: 8 mi

Pressure: 30.26 "Hg

Humidity: 92%

Dew point: 28 °F

Location of CincinnatiLocation

Historic Weather in Cincinnati — Graph

°F

Cincinnati temperature yesterday

Maximum temperature yesterday: 46 °F (at 12:53 AM)
Minimum temperature yesterday: 32 °F (at 11:53 PM)
Average temperature yesterday: 37 °F

Past Weeks' High & Low Weather Summary

 TemperatureHumidityPressure
High55 °F (Dec 23, 3:00 PM)100% (Dec 22, 11:53 PM)30.37 "Hg (Dec 22, 11:53 PM)
Low22 °F (Dec 19, 3:53 AM)55% (Dec 26, 3:53 PM)29.37 "Hg (Dec 24, 1:53 PM)
Average38 °F84%30.10 "Hg
* Reported Dec 14 2:53 AM — Dec 29 2:53 AM, Cincinnati, Weather by CustomWeather, © 2014

Note: Actual official high and low records may vary slightly from our data, if they occured in-between our weather recording intervals... More about our weather records

Advertising

Cincinnati weather history for previous 24 hours

 ConditionsComfort  
Time TempWeatherWind HumidityBarometerVisibility
2:53 AM
Dec 29
31 °FOvercast.3 mph89%30.27 "Hg9 mi
1:53 AM30 °FOvercast.5 mph92%30.25 "Hg9 mi
12:53 AM32 °FClear.5 mph85%30.24 "Hg9 mi
11:53 PM
Dec 28
32 °FClear.6 mph92%30.24 "Hg9 mi
10:53 PM34 °FOvercast.No wind85%30.24 "Hg10 mi
9:53 PM34 °FOvercast.No wind85%30.22 "Hg10 mi
8:53 PM35 °FClear.No wind78%30.22 "Hg10 mi
7:53 PM35 °FOvercast.6 mph82%30.22 "Hg10 mi
6:53 PM36 °FOvercast.7 mph79%30.21 "Hg10 mi
5:53 PM36 °FOvercast.5 mph79%30.20 "Hg10 mi
4:53 PM37 °FOvercast.6 mph76%30.19 "Hg10 mi
3:53 PM37 °FOvercast.6 mph76%30.18 "Hg10 mi
2:53 PM38 °FOvercast.6 mph73%30.17 "Hg10 mi
1:53 PM37 °FOvercast.7 mph73%30.15 "Hg10 mi
12:53 PM37 °FPartly sunny.8 mph79%30.16 "Hg10 mi
11:53 AM35 °FOvercast.6 mph85%30.18 "Hg10 mi
10:53 AM35 °FOvercast.9 mph88%30.18 "Hg8 mi
9:53 AM36 °FOvercast.7 mph89%30.18 "Hg7 mi
8:53 AM36 °FOvercast.9 mph92%30.15 "Hg10 mi
7:53 AM36 °FFog.8 mph97%30.14 "Hg6 mi
6:53 AM36 °FFog.6 mph97%30.14 "Hg4 mi
5:53 AM38 °FOvercast.5 mph90%30.11 "Hg10 mi
4:53 AM38 °FMostly cloudy.8 mph97%30.11 "Hg8 mi
Weather by CustomWeather, © 2014

See weather overviewHow to use our weather pages